Flag for Russia Weather past 2 weeks in Volgograd, Russia

28 °F


Feels Like: 22 °F
Forecast: 34 / 47 °F
Wind: 6 mph from Northeast

Location: Volgograd Airport

Current Time: Oct 14, 2015 at 6:16:29 AM

Latest Report: Oct 14, 2015 at 5:30 AM

Visibility: 10 mi

Pressure: 30.45 "Hg

Humidity: 69%

Dew point: 19 °F

Location of VolgogradLocation

Historic Weather in Volgograd — Graph


Volgograd temperature yesterday

Maximum temperature yesterday: 43 °F (at 1:00 PM)
Minimum temperature yesterday: 23 °F (at 2:00 AM)
Average temperature yesterday: 34 °F

Past Weeks' High & Low Weather Summary

High81 °F (Sep 29, 3:00 PM)100% (Oct 2, 6:00 AM)30.45 "Hg (Oct 2, 6:00 AM)
Low21 °F (Oct 10, 6:30 AM)16% (Sep 30, 3:00 PM)29.59 "Hg (Oct 7, 5:30 AM)
Average48 °F52%30.11 "Hg
* Reported Sep 29 5:00 AM — Oct 14 5:00 AM, Volgograd, Weather by CustomWeather, © 2015

Note: Actual official high and low records may vary slightly from our data, if they occured in-between our weather recording intervals... More about our weather records


Volgograd weather history for previous 24 hours

Time TempWeatherWind HumidityBarometerVisibility
5:00 AM
Wed, Oct 14
28 °FClear.6 mph64%30.45 "Hg10 mi
4:30 AM30 °FClear.6 mph64%30.45 "Hg10 mi
4:00 AM30 °FClear.6 mph64%30.45 "Hg10 mi
3:30 AM28 °FClear.6 mph64%30.45 "Hg10 mi
3:00 AM30 °FClear.6 mph59%30.45 "Hg10 mi
2:30 AM32 °FClear.6 mph55%30.45 "Hg10 mi
2:00 AM30 °FClear.6 mph59%30.45 "Hg10 mi
1:30 AM30 °FClear.6 mph59%30.45 "Hg10 mi
1:00 AM30 °FClear.6 mph59%30.45 "Hg10 mi
12:30 AM30 °FClear.6 mph59%30.45 "Hg10 mi
12:00 AM30 °FClear.6 mph59%30.45 "Hg10 mi
11:30 PM
Tue, Oct 13
30 °FClear.6 mph59%30.45 "Hg10 mi
11:00 PM32 °FClear.6 mph55%30.45 "Hg10 mi
10:30 PM30 °FClear.6 mph55%30.45 "Hg10 mi
10:00 PM34 °FClear.6 mph48%30.45 "Hg10 mi
9:30 PM34 °FClear.6 mph48%30.45 "Hg10 mi
9:00 PM32 °FClear.6 mph51%30.45 "Hg10 mi
8:30 PM32 °FClear.6 mph51%30.42 "Hg10 mi
8:00 PM36 °FClear.3 mph44%30.45 "Hg10 mi
7:30 PM36 °FClear.3 mph44%30.45 "Hg10 mi
7:00 PM36 °FClear.3 mph44%30.42 "Hg10 mi
6:30 PM37 °FClear.3 mph41%30.42 "Hg10 mi
6:00 PM36 °FClear.3 mph44%30.42 "Hg10 mi
5:30 PM39 °FClear.3 mph42%30.42 "Hg10 mi
5:00 PM41 °FSunny.6 mph39%30.42 "Hg10 mi
4:30 PM41 °FSunny.6 mph39%30.42 "Hg10 mi
4:00 PM43 °FSunny.8 mph36%30.42 "Hg10 mi
3:30 PM43 °FSunny.8 mph36%30.42 "Hg10 mi
3:00 PM43 °FSunny.8 mph34%30.42 "Hg10 mi
2:30 PM43 °FPassing clouds.6 mph34%30.42 "HgN/A
2:00 PM43 °FPassing clouds.6 mph34%30.42 "HgN/A
1:30 PM43 °FPassing clouds.8 mph36%30.42 "HgN/A
1:00 PM43 °FPassing clouds.6 mph36%30.42 "HgN/A
12:30 PM41 °FPassing clouds.8 mph36%30.42 "HgN/A
12:00 PM41 °FPassing clouds.8 mph39%30.45 "HgN/A
11:30 AM41 °FPassing clouds.8 mph42%30.45 "HgN/A
11:00 AM39 °FPassing clouds.8 mph45%30.45 "HgN/A
10:30 AM39 °FPassing clouds.8 mph45%30.45 "HgN/A
10:00 AM39 °FPassing clouds.6 mph45%30.45 "HgN/A
9:30 AM37 °FPassing clouds.6 mph48%30.45 "HgN/A
9:00 AM37 °FPassing clouds.6 mph45%30.45 "HgN/A
8:30 AM36 °FSunny.6 mph52%30.45 "Hg10 mi
8:00 AM34 °FSunny.3 mph65%30.45 "Hg10 mi
7:30 AM30 °FSunny.3 mph69%30.42 "Hg10 mi
7:00 AM28 °FSunny.6 mph74%30.42 "Hg10 mi
6:30 AM27 °FSunny.6 mph74%30.42 "Hg10 mi
6:00 AM25 °FClear.6 mph69%30.42 "Hg10 mi
Weather by CustomWeather, © 2015

See weather overviewHow to use our weather pages